Regional Weather Roundup
Issued by NWS

Home | Current Version | Previous Version | Graphics & Text | Print | Product List | Glossary On
Versions: 1 2 3 4 5 6 7 8 9 10 11 12 13 14 15 16 17 18 19 20 21 22 23 24 25 26 27 28 29 30 31 32 33 34 35 36 37 38 39 40 41 42 43 44 45 46 47 48 49 50
000
ASUS43 KLMK 280210
RWRKY
KENTUCKY REGIONAL WEATHER ROUNDUP
NATIONAL WEATHER SERVICE LOUISVILLE KY
1000 PM EDT WED AUG 27 2014

NOTE "FAIR" INDICATES FEW OR NO CLOUDS BELOW 12,000 FEET
WITH NO SIGNIFICANT WEATHER AND/OR OBSTRUCTIONS TO VISIBILITY.

KYZ001>023-026-027-061>063-070>075-280300-
WESTERN AND SOUTH CENTRAL KENTUCKY

CITY           SKY/WX    TMP DP  RH WIND       PRES   REMARKS
PADUCAH        MOCLDY    80  71  74 CALM      30.04R
HENDERSON      PTCLDY    81  72  74 NE7       30.05R
OWENSBORO      PTCLDY    84  76  77 NE5       30.05R HX  92
HOPKINSVILLE   PTCLDY    82  72  71 NE3       30.05R
BOWLING GREEN  PTCLDY    80  73  79 NW5       30.07R
GLASGOW        PTCLDY    78  70  75 CALM      30.07R
$$

KYZ024-025-028>034-038-045-046-053-280300-
NORTH CENTRAL KENTUCKY

CITY           SKY/WX    TMP DP  RH WIND       PRES   REMARKS
LOUISVILLE/SDF CLOUDY    75  71  87 CALM      30.05R
LOUISVILLE/LOU MOCLDY    75  72  90 CALM      30.05S
FORT KNOX      MOCLDY    72  72 100 SW2       30.05S
$$

KYZ035>037-039>044-047>052-055>060-089>105-280300-
NORTHEAST KENTUCKY

CITY           SKY/WX    TMP DP  RH WIND       PRES   REMARKS
LEXINGTON      CLOUDY    72  68  87 CALM      30.06R
COVINGTON      PTCLDY    81  71  71 N8        30.05R
FRANKFORT      CLOUDY    71  69  93 CALM      30.05R
$$

KYZ054-064>069-076>088-106>120-280300-
SOUTHEAST KENTUCKY

CITY           SKY/WX    TMP DP  RH WIND       PRES   REMARKS
JACKSON        PTCLDY    75  69  81 CALM      30.07S
LONDON         CLEAR     76  69  79 CALM      30.08S
SOMERSET       CLOUDY    73  72  94 CALM      30.08R
MIDDLESBORO    CLEAR     71  65  82 CALM      30.09R
MONTICELLO     CLEAR     73  71  93 CALM      30.08S FOG
$$




USA.gov is the U.S. government's official web portal to all federal, state and local government web resources and services.